Rbgn^[z[y[W
メイン
   新天体発見情報
     Comet P/2012 WA34 = 2024 C5 (Lemmon-PANSTARRS)
投稿するにはまず登録を

スレッド表示 | 新しいものから 前のトピック | 次のトピック | 下へ
投稿者 スレッド
佐藤裕久
投稿日時: 2024-2-29 12:46
モデレータ
登録日: 2005-6-12
居住地: 日本
投稿: 2703
オンライン
Comet P/2012 WA34 = 2024 C5 (Lemmon-PANSTARRS)

E. Schwab (Egelsbach, ドイツ)によると、2月12.97日UT、F. Ocana、D. Abreu、M. Busch、L. Conversi、
R. KreskenとM. MicheliスペインのTenerifeにあるESA(欧州宇宙機関)の光学地上局 (J04)の1.0-m f/4.4 
反射望遠鏡で得た10枚の600-秒CCD露出からP/2012 WA34 (CBET 3379参照)を検出した。ただ尾は見えな
かった。2月14.0日、同じ望遠鏡で観測された。3".5のシーイング10枚60-秒露出で、5".3(半値全幅:FWHM)
の小さなコマが見えた。
S. Deen(Simi Valley, カリフォルニア州)によると、2022年9月18日と19日UT、Cerro Tololo-DECam (W84)
の4.0-m反射望遠鏡で得た画像を見つけた。彗星は非常に暗く(21.6-22.0等)で、外観は恒星状に見える。
NK 2406 (= ICQ's 2023 CometHandbook)の中野主一氏の予報に対し、Delta(T)は、-0.16 dayであった。
MPC 82721の予報に対する修正値は、Delta T = -0.25 dayであった
彗星年表2021の佐藤裕久の参考軌道に対する修正値は、Delta(T) = -0.30 dayであった

検出位置は次のとおり、

     2024 UT             R.A. (2000) Decl.       Mag.   Observer
     Feb. 12.97344    8 57 57.15   +23 02 11.9   20.2   Schwab
          12.97796    8 57 56.99   +23 02 12.2   20.5     "
          12.98402    8 57 56.77   +23 02 13.3   20.5     "
          12.98931    8 57 56.54   +23 02 14.3   20.3     "
          14.00707    8 57 17.81   +23 05 34.0   20.6     "
          14.01499    8 57 17.47   +23 05 35.9   20.4     "
          14.02289    8 57 17.18   +23 05 36.2   20.8     "

MPCの連結軌道要素、位置推算表は次のとおり、

Orbital elements:
    P/2012 WA34 (Lemmon-PANSTARRS)                                              
Epoch 2024 Mar. 31.0 TT = JDT 2460400.5                                         
T 2023 July 8.83617 TT                                  Rudenko                 
q   3.0716932            (2000.0)            P               Q                  
n   0.09740868     Peri.  356.68134     -0.00445207     -0.99438160             
a   4.6781155      Node    93.55511     +0.91989576     -0.04554624             
e   0.3433909      Incl.    6.08277     +0.39213768     +0.09555505             
P  10.1                                                                         
From 39 observations 2011 Sept. 26-2024 Feb. 14, mean residual 0".4.            
                                                                                
Ephemeris:
Date    TT    R. A. (2000) Decl.     Delta      r    Elong.  Phase   m1
2024 01 23    09 11 54.8 +21 37 14   2.3032  3.2700   167.1     3.8  20.5
...
2024 02 07    09 01 52.8 +22 40 50   2.3198  3.2990   171.9     2.4  20.5
...
2024 02 15    08 56 40.7 +23 08 43   2.3558  3.3151   163.6     4.8  20.6
...
2024 02 21    08 53 09.9 +23 25 42   2.3947  3.3275   157.0     6.7  20.6
2024 02 22    08 52 37.4 +23 28 11   2.4021  3.3296   155.9     7.0  20.6
2024 02 23    08 52 05.7 +23 30 33   2.4097  3.3316   154.8     7.3  20.6
...
2024 02 29    08 49 14.9 +23 42 32   2.4611  3.3443   148.3     9.0  20.7
...
2024 03 08    08 46 25.4 +23 52 30   2.5427  3.3615   139.7    11.0  20.8
...
2024 03 23    08 44 33.1 +23 53 21   2.7297  3.3949   124.5    14.0  21.0

(MPEC 2024-D103、CBET 5356、oaa-comet 6342)

スレッド表示 | 新しいものから 前のトピック | 次のトピック | トップ

投稿するにはまず登録を
 
© 1999 Tsutomu Seki.